Dati Storici

Data ora Umidita' aria (%) Temperatura aria (°C) Rad globale (W/m²) Gonioanemometro (°) Tacoanemometro (m/s) Pioggia (mm)
25-06-2020 04:50 97.6 % 19.214 38.529 0.602 0 0
25-06-2020 04:40 97.6 % 19.157 48.306 0.123 0 0
25-06-2020 04:30 97.6 % 19.184 24.48 0.805 0 0
25-06-2020 04:20 97.6 % 19.252 43.336 0.878 0 0
25-06-2020 04:10 97.7 % 19.285 64.593 0.002 0 0
25-06-2020 04:00 97.7 % 19.247 6.257 0.002 0 0
25-06-2020 03:50 97.7 % 19.23 45.344 1.087 0 0
25-06-2020 03:40 97.8 % 19.317 54.475 -0.001 0 0
25-06-2020 03:30 97.8 % 19.424 89.305 -0.002 0 0
25-06-2020 03:20 97.8 % 19.217 39.784 0.095 0 0
25-06-2020 03:10 97.8 % 19.257 35.892 -0.001 0 0
25-06-2020 03:00 97.8 % 19.195 34.761 -0 0 0
25-06-2020 02:50 97.8 % 19.213 117.896 -0.002 0 0
25-06-2020 02:40 97.8 % 19.061 50.342 -0.002 0 0
25-06-2020 02:30 97.8 % 18.955 32.501 -0.001 0 0
25-06-2020 02:20 97.8 % 18.835 343.563 -0 0 0
25-06-2020 02:10 97.8 % 18.711 26.422 0.547 0 0
25-06-2020 02:00 97.8 % 18.711 75.376 -0.003 0 0
25-06-2020 01:50 97.8 % 18.688 70.393 -0.002 0 0
25-06-2020 01:40 97.8 % 18.492 8.68 -0.001 0 0

I dati sono presentati in modo automatico a scopo informativo. In seguito a verifica i dati possono subire modifiche o essere invalidati e non riportati negli archivi definitivi.